Tracking 30289 objects as of 29-Apr-2025
HD Live streaming from Space Station
objects crossing your sky now

USA 386

Track USA 386 now!
10-day predictions


NORAD ID: 60169
Int'l Code: 2024-121M
Perigee: 582.5 km
Apogee: 585.9 km
Inclination: 70.0 °
Period: 96.2 minutes
Semi major axis: 6955 km
RCS: Unknown
Launch date: June 29, 2024
Source: United States (US)
Launch site: AIR FORCE WESTERN TEST RANGE (AFWTR)
Your satellite tracking list
Your tracking list is empty




NASA's NSSDC Master Catalog

Two Line Element Set (TLE):
1 60169U 24121M   25102.80420700 0.00000020  00000-0  17463-5 0    04
2 60169  70.0000  28.8944 0002422 274.1725  85.8274 14.96716317    03
Source of the keplerian elements: McCants